User: anonymous   Login
Location: Hamburg
(53.5500°N, 10.0000°E)
Time: 23:55:34
(UTC+02:00)
Language:

Courier 1B - Orbit

View from above orbital plane
View from above orbital plane
View from above satellite
View from above satellite

Ground track
Ground track

The orbit data is extracted from the following two-line orbital elements,

1 00058U 60013A   15123.49819481  .00000092  00000-0  14012-4 0  9992
2 00058 028.3268 231.3712 0165071 051.4470 310.0744 13.46292417686697
Epoch (UTC): 03 May 2015 11:57:24
Eccentricity: 0.0165071
inclination: 28.3268°
perigee height: 963 km
apogee height: 1209 km
right ascension of ascending node: 231.3712°
argument of perigee: 51.4470°
revolutions per day: 13.46292417
mean anomaly at epoch: 310.0744°
orbit number at epoch: 68669

The dashed part of the orbit path shows where the satellite is in the earth's shadow,  

DLR